Regional Weather Roundup
Issued by NWS Grand Forks, ND

Home | Current Version | Previous Version | Graphics & Text | Print | Product List | Glossary On
Versions: 1 2 3 4 5 6 7 8 9 10 11 12 13 14 15 16 17 18 19 20 21 22 23 24 25 26 27 28 29 30 31 32 33 34 35 36 37 38 39 40 41 42 43 44 45 46 47 48 49 50
211
ASUS43 KFGF 232231
RWRFGF
PRAIRIE TO PINES  WEATHER ROUNDUP
NATIONAL WEATHER SERVICE EASTERN NORTH DAKOTA/GRAND FORKS ND
500 PM CDT SAT JUN 23 2018

 **SATELLITE DATA USED TO AUGMENT SKY COVER AT AUTOMATED STATIONS**
 *****  WEATHER ACROSS EASTERN NORTH DAKOTA  *****

CITY           SKY/WX    TMP DP  RH WIND       PRES   REMARKS
GRAND FORKS    PTSUNNY   80  65  59 W5        29.68R
GRAND FRKS AFB FAIR      80  62  53 CALM      29.68F
DEVILS LAKE    FAIR      70  63  78 N16       29.74R
FARGO          PTSUNNY   81  60  48 SE10      29.68S
WAHPETON ARPT  FAIR      82  52  34 S9        29.69S
$$

 ***** WEATHER ACROSS CENTRAL AND WESTERN NORTH DAKOTA  *****

CITY           SKY/WX    TMP DP  RH WIND       PRES   REMARKS
BISMARCK       LGT RAIN  71  65  81 CALM      29.72R
MINOT          CLOUDY    67  61  81 S5        29.72S
JAMESTOWN      FAIR      77  57  50 S10       29.70S
MINOT AFB      DRIZZLE   66  60  80 SE14      29.70R
GARRISON         N/A     74  62  66 CALM      29.69F
WILLISTON      LGT RAIN  65  61  87 N5        29.72S
DICKINSON      CLOUDY    64  58  80 NW9       29.73S
HETTINGER      CLOUDY    64  60  87 N5        29.76R
$$

 *****  OTHER AIRPORT OBSERVATIONS IN OUR AREA  *****

CITY           SKY/WX    TMP DP  RH WIND       PRES   REMARKS
WALHALLA       FAIR      82  61  47 S10       29.70R
GRAFTON AIRPOR NOT AVBL
VALLEY CITY AR NOT AVBL
CANDO          RAIN      64  64 100 N12       29.77S
CAVALIER APRT  FAIR      79  63  57 SW15      29.72R
GWINNER          N/A     79  57  47 SE14      29.68S
SHEYENNE NWR     N/A     82  59  44 S12       29.95S
ROLLA          FAIR      66  63  88 S6G16     29.76F
 ***** THE ABOVE OBSERVATIONS ARE NON NWS ARE NOT QUALITY
       CONTROLLED AND MAY MIS-REPORT RAIN FOR SNOW...
$$

  *****  WEATHER ACROSS NORTHERN MINNESOTA  *****

CITY           SKY/WX    TMP DP  RH WIND       PRES   REMARKS
FLAG ISLAND    FAIR      75  61  60 SE12      29.76S VSB 1/16
WARROAD        FAIR      70  64  83 SE10      29.79S
ROSEAU         LGT RAIN  72  63  73 E12       29.77S
HALLOCK        FAIR      82  63  51 E17G24    29.69R
THF RVR FALLS  FAIR      78  61  55 E7        29.72S
BAUDETTE       LGT RAIN  64  63  96 E6        29.79F
WASKISH        LGT RAIN  66  64  94 CALM      29.76F
CROOKSTON      FAIR      82  61  47 NE5       29.70R
STEPHEN NDAWN    N/A     82  59  44 S5          N/A
GREENBUSH NDAW   N/A     73  64  73 E6          N/A
$$
  *****  WEATHER ACROSS CENTRAL AND WEST MINNESOTA  *****

CITY           SKY/WX    TMP DP  RH WIND       PRES   REMARKS
FOSSTON        FAIR      86  57  37 CALM      29.72S THUNDER
BEMIDJI        FAIR      78  55  45 E6        29.74R
PARK RAPIDS    HVY RAIN  67  61  81 S12G25    29.74S
ELBOW LAKE     FAIR      81  59  47 E9        29.72S
WADENA         FAIR      75  61  60 S5        29.74S
DETROIT LAKES  PTSUNNY   79  59  50 S5        29.74S
MOORHEAD       FAIR      82  57  42 SE8       29.70S
FERGUS FALLS   FAIR      81  57  44 SE8       29.72R
MORRIS MN      FAIR      82  59  44 S10G16    29.71S
STAPLES        FAIR      79  57  47 CALM      29.74F
$$
  *****  WEATHER ELSEWHERE ACROSS MINNESOTA  *****

CITY           SKY/WX    TMP DP  RH WIND       PRES   REMARKS
DULUTH         FAIR      72  56  57 SE7       29.77R
INTRNTL FALLS  FAIR      78  64  61 E8        29.78S
ELY            PTSUNNY   72  61  68 SE5       29.80R
CLOQUET        FAIR      77  55  47 SE5       29.76S
WHEATON        FAIR      81  55  41 SE13      29.71S
BRAINERD       FAIR      83  60  45 VRB5      29.74S
HIBBING        PTSUNNY   80  59  48 N6        29.75S
ALEXANDRIA     FAIR      82  57  42 S5        29.75S
SAINT CLOUD    FAIR      81  56  42 S7        29.74S
MINNEAPOLIS    PTSUNNY   81  59  47 S8        29.75S
$$

  *****  WEATHER ACROSS SOUTH DAKOTA  *****

CITY           SKY/WX    TMP DP  RH WIND       PRES   REMARKS
SIOUX FALLS    PTSUNNY   75  63  66 S13       29.73S
BROOKINGS      CLOUDY    74  62  66 S14       29.73S
WATERTOWN      CLOUDY    73  60  63 S12       29.71S
HURON          LGT RAIN  68  66  93 SE7       29.69R FOG
SISSETON         N/A     80  58  46 SE17      29.68S
ABERDEEN       RAIN      68  66  93 S13       29.69R FOG
MITCHELL       FAIR      79  66  64 S14G23    29.68S
PIERRE         FAIR      73  63  70 N16G31    29.67R
MOBRIDGE       CLOUDY    72  63  73 N9        29.68S
RAPID CITY     CLOUDY    70  56  61 N20       29.78S THUNDER
$$

  *****  SOME WEATHER IN NEARBY STATES *****

CITY           SKY/WX    TMP DP  RH WIND       PRES   REMARKS
GLASGOW MT     FAIR      83  54  36 W9        29.71F THUNDER
GREAT FALLS MT PTSUNNY   63  50  62 W16       29.89R
CHEYENNE WY    FAIR      80  33  18 NW9       29.91F
SCOTTSBLUFF NE FAIR      84  52  33 E10       29.78F
OMAHA NE       PTSUNNY   78  64  61 SE10      29.76S
DES MOINES IA  PTSUNNY   77  63  61 S7        29.78R
DAVENPORT IA   PTSUNNY   74  62  66 W8        29.80S
CHICAGO IL     PTSUNNY   80  55  42 W5        29.75S
EAU CLAIRE WI  FAIR      81  54  39 CALM      29.75S
LA CROSSE WI   FAIR      84  54  35 W5        29.75S
$$

  *****  SOME NATIONAL WEATHER *****

CITY           SKY/WX    TMP DP  RH WIND       PRES   REMARKS
LA GUARDIA NY  CLOUDY    66  60  81 E8        29.82S
RALEIGH NC     FAIR      90  72  55 W7        29.82S HX  97
ATLANTA GA     PTSUNNY   81  67  62 SW9       29.96F
NEW ORLEANS LA PTSUNNY   92  75  57 S9        29.90F HX 103
OKLAHOMA CITY  FAIR      89  69  51 VRB7      29.80F HX  93
ALBUQUERQUE NM FAIR      97  21   6 W14G31    29.90F HX  90
SALT LAKE CITY FAIR      86  37  17 NW13G23   29.87S
LOS ANGELES CA PTSUNNY   70  58  65 SE9G20    29.87F
BOISE ID       FAIR      77  41  27 W20G31    29.97S
SEATTLE WA     PTSUNNY   67  54  63 SW7       30.20S
$$

*** WEATHER ACROSS MANITOBA...SASKATCHEWAN AND ONTARIO ***
                ***ONTARIO***

CITY           SKY/WX    TMP DP  RH WIND       PRES   REMARKS
GERALDTON      LGT RAIN  48  45  87 NE13      29.94R
THUNDER BAY    PTSUNNY   61  52  72 E10       29.82S
SIOUX LOOKOUT  CLOUDY    63  61  94 E8        29.84R
TORONTO        CLOUDY    66  63  88 E6        29.73S
BIG TROUT LK   SUNNY     68  36  30 E7G17     30.01S
PICKLE LAKE    PTSUNNY   59  41  51 E14G22    29.96R
DRYDEN         PTSUNNY   72  63  73 E9        29.81R
KENORA         PTSUNNY   77  63  61 NE7       29.78S
$$
                *** MANITOBA***

CITY           SKY/WX    TMP DP  RH WIND       PRES   REMARKS
BRANDON        CLOUDY    79  63  57 E13G20    29.74R
DAUPHIN        MOSUNNY   73  64  73 NE14G22   29.77S THUNDER
ISLAND LAKE    MOSUNNY   70  45  40 SE20      29.96S
PILOT MOUND      N/A    N/A N/A N/A E2          N/A
THE PAS        CLOUDY    64  55  72 E9G21     29.90R
THOMPSON       MOSUNNY   75  36  23 SE6G17    29.98S
WINNIPEG       PTSUNNY   82  63  51 E16       29.72R
LYNN LAKE      SUNNY     73  45  35 E14       29.97S
CHURCHILL      MOSUNNY   59  41  51 E15       30.05S
GILLAM         MOSUNNY   72  36  26 E7        30.04S
$$
                ***SASKATCHEWAN***

CITY           SKY/WX    TMP DP  RH WIND       PRES   REMARKS
ESTEVAN        PTSUNNY   77  61  57 SE2       29.69S THUNDER
KINDERSLEY     PTSUNNY   75  59  57 NE10      29.77R
LLOYDMINSTER   PTSUNNY   77  57  50 VRB3      29.81R
PRINCE ALBERT  CLOUDY    66  59  77 E15       29.85R
REGINA         PTSUNNY   70  59  68 N9        29.71R
YORKTON        LGT RAIN  66  64  94 E9        29.78R
N. BATTLEFORD  MOSUNNY   73  61  64 NW5       29.80S
LA RONGE       PTSUNNY   70  59  68 E8        29.89F
SASKATOON      PTSUNNY   77  61  57 NE13G24   29.77S
SWIFT CURRENT  PTSUNNY   68  57  68 E5        29.76R
$$
NOTE: THESE ARE AUTOMATED STATIONS WITH LIMITED QUALITY CONTROL
      "FAIR" INDICATES FEW OR NO CLOUDS BELOW 12,000 FEET WITH NO
      SIGNIFICANT WEATHER AND/OR OBSTRUCTIONS TO VISIBILITY.
      SKY/WX - SKY CONDITION AND SIGNIFICANT WEATHER.
      TMP - AIR TEMPERATURE.    DP   - DEWPOINT TEMPERATURE.
      RH  - RELATIVE HUMIDITY.  PRES - PRESSURE.
      HX  - HEAT INDEX.         WCI  - WIND CHILL INDEX.
$




USA.gov is the U.S. government's official web portal to all federal, state and local government web resources and services.